This is the latest recevied weather packets stored in our database for station/object KC7RJK-2. If no packets are shown the sender has not sent any weather packets the latest 10 day(s).
| Time | Temp. | Humidity | Pressure | Rain* | Wind** | Luminosity | Snow |
|---|---|---|---|---|---|---|---|
| 1777777209 | 17.22° C | 78% | 1011.3 hPa | 0 mm | - | - | - |
| 1777776608 | 17.78° C | 77% | 1011.3 hPa | 0 mm | - | - | - |
| 1777776010 | 17.78° C | 76% | 1011.4 hPa | 0 mm | - | - | - |
| 1777775410 | 18.33° C | 75% | 1011.4 hPa | 0 mm | - | - | - |
| 1777774808 | 18.89° C | 74% | 1011.5 hPa | 0 mm | - | - | - |
| 1777774208 | 19.44° C | 73% | 1011.5 hPa | 0 mm | - | - | - |
| 1777773612 | 20° C | 71% | 1011.4 hPa | 0 mm | - | - | - |
| 1777773010 | 20° C | 72% | 1011.5 hPa | 0 mm | - | - | - |
| 1777772410 | 20° C | 71% | 1011.7 hPa | 0 mm | - | - | - |
| 1777771811 | 20° C | 70% | 1011.6 hPa | 0 mm | - | - | - |
| 1777771210 | 20° C | 69% | 1011.5 hPa | 0 mm | - | - | - |
| 1777770609 | 20.56° C | 71% | 1011.8 hPa | 0 mm | - | - | - |
| 1777770010 | 20° C | 71% | 1012 hPa | 0 mm | - | - | - |
| 1777769410 | 20.56° C | 70% | 1011.8 hPa | 0 mm | - | - | - |
| 1777768808 | 20.56° C | 71% | 1011.6 hPa | 0 mm | - | - | - |
| 1777768209 | 20° C | 69% | 1011.4 hPa | 0 mm | - | - | - |
| 1777767609 | 20° C | 72% | 1011.4 hPa | 0 mm | - | - | - |
| 1777766409 | 20° C | 71% | 1011.5 hPa | 0 mm | - | - | - |
| 1777765809 | 19.44° C | 70% | 1011.4 hPa | 0 mm | - | - | - |
| 1777765208 | 20° C | 68% | 1011.6 hPa | 0 mm | - | - | - |
| 1777764610 | 20° C | 70% | 1011.8 hPa | 0 mm | - | - | - |
| 1777764010 | 19.44° C | 68% | 1012 hPa | 0 mm | - | - | - |
| 1777763409 | 20° C | 69% | 1012.1 hPa | 0 mm | - | - | - |
| 1777762809 | 20° C | 68% | 1012.4 hPa | 0 mm | - | - | - |
| 1777762208 | 19.44° C | 69% | 1012.5 hPa | 0 mm | - | - | - |
* Rain latest hour (hover to see other rain measurements)
** Current wind speed in m/s (hover to see current wind gust speed)